Home > Weather > Peterborough > Past weeks

Flag for United Kingdom Past Weather in Peterborough, England, United Kingdom — Yesterday and Last 2 Weeks

Now
61 °F

Broken clouds.


Feels Like: 61 °F
Forecast: 56 / 70 °F
Wind: 8 mph from Southwest

Location: Wittering

Current Time: Jul 29, 2016 at 9:01:00 AM

Latest Report: Jul 29, 2016 at 7:50 AM


Visibility: N/A

Pressure: 29.80 "Hg

Humidity: 88%

Dew Point: 57 °F

Location of PeterboroughLocation

Past Weather in Peterborough — Graph

°F

Peterborough Temperature Yesterday

Maximum temperature yesterday: 66 °F (at 10:50 AM)
Minimum temperature yesterday: 54 °F (at 3:50 AM)
Average temperature yesterday: 60 °F

High & Low Weather Summary for the Past Weeks

 TemperatureHumidityPressure
High90 °F (Jul 19, 3:50 PM)100% (Jul 17, 12:50 AM)30.27 "Hg (Jul 17, 12:50 AM)
Low48 °F (Jul 15, 3:50 AM)35% (Jul 18, 6:50 PM)29.71 "Hg (Jul 20, 6:50 AM)
Average66 °F74%30.05 "Hg
* Reported Jul 14 7:50 AM — Jul 29 7:50 AM, Peterborough, Weather by CustomWeather, © 2016

Note: Actual official high and low records may vary slightly from our data, if they occured in-between our weather recording intervals... More about our weather records

Advertising

Peterborough Weather History for the Previous 24 Hours

Scroll right to see more
 ConditionsComfort  
Time TempWeatherWind HumidityBarometerVisibility
7:50 AM
Fri, Jul 29
61 °FBroken clouds.8 mph88%29.80 "HgN/A
6:50 AM59 °FPassing clouds.9 mph94%29.80 "HgN/A
5:50 AM57 °FCool.9 mph100%29.80 "HgN/A
4:50 AM59 °FPassing clouds.10 mph94%29.80 "HgN/A
3:50 AM57 °FPassing clouds.8 mph100%29.80 "HgN/A
2:50 AM59 °FPassing clouds.8 mph100%29.80 "HgN/A
1:50 AM61 °FMostly cloudy.8 mph94%29.80 "HgN/A
12:50 AM63 °FPassing clouds.7 mph94%29.83 "HgN/A
11:50 PM
Thu, Jul 28
61 °FPassing clouds.7 mph100%29.83 "HgN/A
10:50 PM63 °FOvercast.8 mph94%29.83 "HgN/A
9:50 PM63 °FPartly sunny.6 mph94%29.83 "HgN/A
8:50 PM63 °FPassing clouds.8 mph94%29.83 "HgN/A
7:50 PM66 °FScattered clouds.7 mph83%29.83 "HgN/A
6:50 PM64 °FScattered clouds.7 mph88%29.83 "HgN/A
5:50 PM63 °FDrizzle. Partly sunny.7 mph94%29.83 "HgN/A
4:50 PM63 °FBroken clouds.9 mph88%29.86 "HgN/A
3:50 PM61 °FPartly sunny.9 mph94%29.89 "HgN/A
2:50 PM57 °FLight rain. Broken clouds.10 mph94%29.92 "Hg5 mi
1:50 PM59 °FRain. Partly sunny.9 mph88%29.92 "Hg3 mi
12:50 PM64 °FPartly sunny.7 mph68%29.92 "HgN/A
11:50 AM64 °FRain. Partly sunny.10 mph60%29.92 "HgN/A
10:50 AM66 °FScattered clouds.9 mph56%29.95 "HgN/A
9:50 AM63 °FScattered clouds.7 mph64%29.95 "HgN/A
Weather by CustomWeather, © 2016

See weather overviewHow to use our weather pages